Rochester, MN

6:54 PM CDT on August 20, 2017 (GMT -0500)
Rochester International

Weather History for KRST - June, 2013

Change the Weather History Date:

Sunday, June 16, 2013

  Actual Average Record
Temperature  
Mean Temperature 71 °F 68 °F  
Max Temperature 83 °F 78 °F 99 °F (1913)
Min Temperature 59 °F 58 °F 41 °F (1989)
Degree Days  
Heating Degree Days 0 1  
Month to date heating degree days 60 42  
Since 1 June heating degree days 60  
Since 1 July heating degree days 7825 7712  
Cooling Degree Days 6 4  
Month to date cooling degree days 28 50  
Year to date cooling degree days 58 84  
Since 1 June cooling degree days 28  
Growing Degree Days 20 (Base 50)    
Moisture  
Dew Point 54 °F    
Average Humidity 64    
Maximum Humidity 97    
Minimum Humidity 31    
Precipitation  
Precipitation 0.00 in 0.16 in 2.11 in (1996)
Month to date precipitation 1.17 2.48  
Year to date precipitation 25.07 12.92  
Snow  
Snow 0.00 in 0.00 in 0.00 in (2012)
Month to date snowfall 0.0 0.0  
Since 1 June snowfall 0.0  
Since 1 July snowfall 74.0 51.9  
Snow Depth 0.00 in    
Sea Level Pressure  
Sea Level Pressure 29.92 in    
Wind  
Wind Speed 9 mph (WNW)    
Max Wind Speed 21 mph    
Max Gust Speed 28 mph    
Visibility 10 miles    
Events      
T = Trace of Precipitation, MM = Missing Value Source: NWS Daily Summary

Daily Weather History Graph

Daily Weather History Graph

Search for Another Location

Airport or City:

Trip Planner

Search our weather history database for the weather conditions in past years. The results will help you decide how hot, cold, wet, or windy it might be!

Date:

Astronomy

Jun. 16, 2013 Rise Set
Actual Time 5:26 AM CDT 8:54 PM CDT
Civil Twilight 4:50 AM CDT 9:31 PM CDT
Nautical Twilight 4:03 AM CDT 10:18 PM CDT
Astronomical Twilight 3:02 AM CDT 11:19 PM CDT
Moon 1:18 PM CDT (6/16) 12:46 AM CDT (6/16)
Length of Visible Light 16h 40m
Length of Day
15h 27m
Waxing Crescent, 50% of the Moon is Illuminated
Jun 16
Waxing Crescent
Jun 16
First Quarter
Jun 23
Full
Jun 29
Last Quarter
Jul 8
New

Hourly Weather History & Observations

Time (CDT) Temp. Dew Point Humidity Pressure Visibility Wind Dir Wind Speed Gust Speed Precip Events Conditions
12:54 AM 62.1 °F 61.0 °F 96% 29.91 in 7.0 mi NW 8.1 mph - N/A   Clear
1:54 AM 64.0 °F 60.1 °F 87% 29.91 in 10.0 mi WNW 9.2 mph - N/A   Clear
2:54 AM 61.0 °F 59.0 °F 93% 29.91 in 8.0 mi West 5.8 mph - N/A   Clear
3:54 AM 60.1 °F 57.9 °F 93% 29.93 in 9.0 mi West 6.9 mph - N/A   Clear
4:54 AM 59.0 °F 57.0 °F 93% 29.93 in 9.0 mi WSW 8.1 mph - N/A   Clear
5:54 AM 60.1 °F 57.0 °F 90% 29.94 in 9.0 mi West 8.1 mph - N/A   Clear
6:54 AM 64.0 °F 60.1 °F 87% 29.94 in 10.0 mi West 6.9 mph - N/A   Clear
7:54 AM 69.1 °F 59.0 °F 70% 29.94 in 10.0 mi WNW 9.2 mph - N/A   Clear
8:54 AM 73.0 °F 55.9 °F 55% 29.94 in 10.0 mi WNW 9.2 mph - N/A   Clear
9:54 AM 75.0 °F 55.9 °F 51% 29.94 in 10.0 mi WNW 6.9 mph - N/A   Clear
10:54 AM 78.1 °F 54.0 °F 43% 29.94 in 10.0 mi WNW 10.4 mph - N/A   Clear
11:54 AM 79.0 °F 51.1 °F 38% 29.95 in 10.0 mi NNW 12.7 mph - N/A   Clear
12:54 PM 81.0 °F 51.1 °F 35% 29.94 in 10.0 mi NW 11.5 mph 17.3 mph N/A   Clear
1:54 PM 82.0 °F 50.0 °F 33% 29.93 in 10.0 mi NW 10.4 mph 16.1 mph N/A   Clear
2:54 PM 82.9 °F 48.9 °F 31% 29.94 in 10.0 mi West 15.0 mph 21.9 mph N/A   Partly Cloudy
3:54 PM 82.0 °F 50.0 °F 33% 29.93 in 10.0 mi NW 15.0 mph 24.2 mph N/A   Clear
4:54 PM 82.9 °F 50.0 °F 32% 29.92 in 10.0 mi WNW 15.0 mph 20.7 mph N/A   Clear
5:54 PM 82.0 °F 48.9 °F 31% 29.90 in 10.0 mi WNW 9.2 mph 17.3 mph N/A   Clear
6:54 PM 82.0 °F 51.1 °F 34% 29.88 in 10.0 mi West 4.6 mph - N/A   Clear
7:54 PM 75.9 °F 55.0 °F 48% 29.88 in 10.0 mi SW 5.8 mph - N/A   Clear
8:54 PM 73.0 °F 51.1 °F 46% 29.89 in 10.0 mi North 16.1 mph 24.2 mph N/A   Mostly Cloudy
9:03 PM 71.6 °F 51.8 °F 50% 29.92 in 10.0 mi North 10.4 mph - N/A   Scattered Clouds
9:54 PM 66.9 °F 53.1 °F 61% 29.91 in 10.0 mi West 3.5 mph - N/A   Clear
10:54 PM 66.9 °F 52.0 °F 59% - 10.0 mi SW 4.6 mph - N/A   Clear
11:54 PM 63.0 °F 54.0 °F 72% - 10.0 mi SSW 4.6 mph - N/A   Clear